Location: Jetmore Motorplex
(37.9889°N, 99.8876°W)
Time: 05:55:21
(UTC+00:00)

STARLINK-1065 - Pass Details

Date: 17 February 2020
Orbit: 547 x 551 km, 53.0° (Epoch: 09 April)

Event Time Altitude Azimuth Distance (km) Brightness Sun altitude
Exits shadow 11:27:50 72° 58° (ENE) 582 3.7 -24.2°
Drops below altitude 10° 11:31:50 10° 126° (SE) 1,820 6.9 -23.4°
Sets 11:34:04 0° 128° (SE) 2,710 7.9 -23.0°
